This is the latest recevied weather packets stored in our database for station/object K3BAK-13. If no packets are shown the sender has not sent any weather packets the latest 10 day(s).
| Time | Temp. | Humidity | Pressure | Rain* | Wind** | Luminosity | Snow |
|---|---|---|---|---|---|---|---|
| 1777963562 | 17.22° C | 65% | 1008.3 hPa | 0 mm | - | - | - |
| 1777962958 | 17.22° C | 65% | 1008.3 hPa | 0 mm | - | - | - |
| 1777962359 | 17.22° C | 65% | 1008.2 hPa | 0 mm | - | - | - |
| 1777959359 | 17.78° C | 64% | 1008.6 hPa | 0 mm | - | - | - |
| 1777959075 | 17.78° C | 64% | 1008.7 hPa | 0 mm | - | - | - |
| 1777958758 | 17.78° C | 64% | 1008.6 hPa | 0 mm | - | - | - |
| 1777956658 | 17.22° C | 64% | 1008.8 hPa | 0 mm | - | - | - |
| 1777955467 | 17.22° C | 65% | 1008.8 hPa | 0 mm | - | - | - |
| 1777954258 | 17.22° C | 65% | 1008.7 hPa | 0 mm | - | - | - |
| 1777952458 | 17.22° C | 64% | 1008.8 hPa | 0 mm | - | - | - |
| 1777950364 | 17.78° C | 62% | 1009 hPa | 0 mm | - | - | - |
| 1777949459 | 18.33° C | 61% | 1009.1 hPa | 0 mm | - | - | - |
| 1777947361 | 18.89° C | 60% | 1009.1 hPa | 0 mm | - | - | - |
| 1777945567 | 18.89° C | 59% | 1009.2 hPa | 0 mm | - | - | - |
| 1777944358 | 18.89° C | 59% | 1009.1 hPa | 0 mm | - | - | - |
| 1777944060 | 18.89° C | 59% | 1009 hPa | 0 mm | - | - | - |
| 1777943160 | 19.44° C | 58% | 1008.9 hPa | 0 mm | - | - | - |
| 1777939271 | 20° C | 56% | 1008.2 hPa | 0 mm | - | - | - |
| 1777938359 | 20.56° C | 55% | 1008.4 hPa | 0 mm | - | - | - |
| 1777937159 | 20.56° C | 55% | 1008.3 hPa | 0 mm | - | - | - |
| 1777935961 | 21.11° C | 54% | 1008.4 hPa | 0 mm | - | - | - |
| 1777934460 | 21.11° C | 53% | 1008.4 hPa | 0 mm | - | - | - |
| 1777933558 | 21.67° C | 51% | 1008.3 hPa | 0 mm | - | - | - |
| 1777932960 | 21.67° C | 51% | 1008.5 hPa | 0 mm | - | - | - |
| 1777932357 | 21.67° C | 51% | 1008.4 hPa | 0 mm | - | - | - |
* Rain latest hour (hover to see other rain measurements)
** Current wind speed in m/s (hover to see current wind gust speed)